Starlink 11307

operational
NORAD ID: 61210 Int'l Des: 2024-171 Owner: SPXS Country: US Constellation: starlink
LEOCIRCULAR

Über Starlink 11307

Beschreibung wird geladen...

Live-Position

3D-Globus wird geladen...

Nächste Überflüge

Höhenverlauf

Altitude vs Time

uPlot chart will show altitude changes over time

Zweizeiliger Elementsatz

1 61210U 24171L 25350.91832423 .00000256 00000-0 69719-5 0 9992
2 61210 53.1583 224.6486 0000824 44.1783 315.9301 15.69705151 71392
Epoch: 16. Dez. 2025 • Age: 9 hours

Aktueller Status

Höhe 367.5 km
Geschwindigkeit 7.69 km/s
Subsatellitenpunkt -24.77°S, 121.8°W
Startdatum 20. Sept. 2024
Alter 1.2 years
Typ internet

Technische Details

Klassifizierung Payload
Masse 960.00 kg
Trockenmasse 910.00 kg
Gesamtmasse 960.00 kg
Länge 0.30 m
Durchmesser 4.10 m
Spannweite 29.00 m
Form Box + pan
Hersteller SPXS
Bus-Typ Starlink V2MD
Phasenstatus In Orbit
Besitzer/Staat SPXS/US

Große Konstellationen

Loading constellations...